When you browse on this site, cookies collect data to enhance your experience and personalize the content and advertising you see.
Visit our Privacy Policy to learn more. By continuing to use the site, you agree to this use of cookies and data.
  • In Österreich
  • Länderverzeichnis
  • Für 7 Tage
  • Wassertemperatur
  • Wetterkarte
  • News
  • Widgets
  • user-avatar
    Anmelden

    Stündliche Wetter Supatá

    Heute, 23 September, Montag

    Zeit Temperatur Niederschläge Wind Luftdruck Luftfeuchtigkeit
    00:00 +15°C° 0.3 mm 1 m/S 616 mmHg 91%
    01:00 +15°C° 0 mm 1 m/S 616 mmHg 91%
    02:00 +15°C° 0.5 mm 1 m/S 616 mmHg 91%
    03:00 +15°C° 0.5 mm 1 m/S 616 mmHg 90%
    04:00 +15°C° 0.5 mm 1 m/S 616 mmHg 90%
    05:00 +15°C° 0.2 mm 1 m/S 617 mmHg 88%
    06:00 +16°C° 0.2 mm 1 m/S 617 mmHg 87%
    07:00 +18°C° 0 mm 1 m/S 618 mmHg 84%
    08:00 +20°C° 0.1 mm 1 m/S 619 mmHg 78%
    09:00 +22°C° 0.1 mm 1 m/S 619 mmHg 71%
    10:00 +23°C° 0.1 mm 1 m/S 620 mmHg 65%
    11:00 +24°C° 0.5 mm 1 m/S 619 mmHg 67%
    12:00 +24°C° 0.5 mm 1 m/S 618 mmHg 69%
    13:00 +24°C° 0.5 mm 2 m/S 617 mmHg 71%
    14:00 +24°C° 1 mm 1 m/S 616 mmHg 73%
    15:00 +23°C° 1 mm 1 m/S 616 mmHg 74%
    16:00 +23°C° 1 mm 1 m/S 616 mmHg 76%
    17:00 +22°C° 1.2 mm 1 m/S 616 mmHg 80%
    18:00 +20°C° 1.2 mm 1 m/S 616 mmHg 84%
    19:00 +19°C° 1.2 mm 1 m/S 615 mmHg 88%
    20:00 +19°C° 0.8 mm 1 m/S 616 mmHg 88%
    21:00 +19°C° 0.8 mm 1 m/S 616 mmHg 89%
    22:00 +18°C° 0.8 mm 1 m/S 617 mmHg 89%
    23:00 +18°C° 0.1 mm 1 m/S 617 mmHg 89%

    Morgen, 24 September, Dienstag

    Zeit Temperatur Niederschläge Wind Luftdruck Luftfeuchtigkeit
    00:00 +18°C° 0.1 mm 1 m/S 616 mmHg 88%
    01:00 +18°C° 0.1 mm 1 m/S 616 mmHg 88%
    02:00 +16°C° 0.1 mm 1 m/S 616 mmHg 88%
    03:00 +16°C° 0.1 mm 1 m/S 616 mmHg 88%
    04:00 +15°C° 0.1 mm 1 m/S 616 mmHg 88%
    05:00 +16°C° 0 mm 1 m/S 616 mmHg 87%
    06:00 +16°C° 0 mm 1 m/S 617 mmHg 85%
    07:00 +18°C° 0 mm 1 m/S 617 mmHg 84%
    08:00 +20°C° 0.1 mm 1 m/S 618 mmHg 78%
    09:00 +22°C° 0.1 mm 1 m/S 619 mmHg 72%
    10:00 +23°C° 0.1 mm 1 m/S 620 mmHg 66%
    11:00 +23°C° 0.7 mm 1 m/S 619 mmHg 71%
    12:00 +22°C° 0.7 mm 1 m/S 618 mmHg 76%
    13:00 +22°C° 0.7 mm 1 m/S 617 mmHg 80%
    14:00 +22°C° 0.8 mm 1 m/S 617 mmHg 81%
    15:00 +22°C° 0.8 mm 1 m/S 616 mmHg 82%
    16:00 +22°C° 0.8 mm 1 m/S 616 mmHg 83%
    17:00 +21°C° 0.8 mm 1 m/S 616 mmHg 86%
    18:00 +20°C° 0.8 mm 1 m/S 616 mmHg 89%
    19:00 +19°C° 0.8 mm 1 m/S 616 mmHg 92%
    20:00 +19°C° 0.7 mm 1 m/S 616 mmHg 91%
    21:00 +18°C° 0.7 mm 1 m/S 617 mmHg 89%
    22:00 +18°C° 0.7 mm 1 m/S 617 mmHg 88%
    23:00 +18°C° 0.3 mm 1 m/S 617 mmHg 88%

    übermorgen, 25 September, Mittwoch

    Zeit Temperatur Niederschläge Wind Luftdruck Luftfeuchtigkeit
    00:00 +18°C° 0.3 mm 1 m/S 617 mmHg 88%
    01:00 +18°C° 0.3 mm 1 m/S 616 mmHg 88%
    02:00 +18°C° 0.2 mm 1 m/S 616 mmHg 88%
    03:00 +16°C° 0.2 mm 0 m/S 616 mmHg 88%
    04:00 +16°C° 0.2 mm 0 m/S 616 mmHg 87%
    05:00 +16°C° 0.2 mm 0 m/S 617 mmHg 87%
    06:00 +16°C° 0.2 mm 0 m/S 617 mmHg 87%
    07:00 +16°C° 0.2 mm 0 m/S 618 mmHg 87%
    08:00 +17°C° 0.4 mm 0 m/S 618 mmHg 85%
    09:00 +18°C° 0.4 mm 0 m/S 619 mmHg 82%
    10:00 +19°C° 0.4 mm 0 m/S 619 mmHg 80%
    11:00 +20°C° 0.8 mm 0 m/S 619 mmHg 77%
    12:00 +23°C° 0.8 mm 1 m/S 618 mmHg 75%
    13:00 +23°C° 0.8 mm 1 m/S 617 mmHg 72%
    14:00 +23°C° 0.5 mm 1 m/S 617 mmHg 72%
    15:00 +24°C° 0.5 mm 1 m/S 616 mmHg 71%
    16:00 +24°C° 0.5 mm 1 m/S 616 mmHg 71%
    17:00 +22°C° 1.2 mm 1 m/S 616 mmHg 77%
    18:00 +21°C° 1.2 mm 1 m/S 616 mmHg 84%
    19:00 +19°C° 1.2 mm 1 m/S 616 mmHg 91%
    20:00 +19°C° 1 mm 1 m/S 616 mmHg 92%
    21:00 +18°C° 1 mm 1 m/S 616 mmHg 92%
    22:00 +18°C° 1 mm 1 m/S 617 mmHg 93%
    23:00 +16°C° 0.3 mm 1 m/S 617 mmHg 93%

    26 September, Donnerstag

    Zeit Temperatur Niederschläge Wind Luftdruck Luftfeuchtigkeit
    00:00 +16°C° 0.3 mm 1 m/S 616 mmHg 93%
    01:00 +16°C° 0.3 mm 1 m/S 616 mmHg 93%
    02:00 +15°C° 0 mm 1 m/S 616 mmHg 92%
    03:00 +15°C° 0 mm 1 m/S 616 mmHg 92%
    04:00 +15°C° 0 mm 1 m/S 615 mmHg 91%
    05:00 +16°C° 0 mm 1 m/S 616 mmHg 90%
    06:00 +16°C° 0 mm 1 m/S 616 mmHg 89%
    07:00 +18°C° 0 mm 1 m/S 617 mmHg 88%
    08:00 +19°C° 0.1 mm 1 m/S 617 mmHg 82%
    09:00 +21°C° 0.1 mm 1 m/S 618 mmHg 76%
    10:00 +22°C° 0.1 mm 1 m/S 619 mmHg 70%
    11:00 +23°C° 0.7 mm 1 m/S 618 mmHg 71%
    12:00 +23°C° 0.7 mm 1 m/S 618 mmHg 72%
    13:00 +23°C° 0.7 mm 1 m/S 617 mmHg 73%
    14:00 +23°C° 1.1 mm 1 m/S 617 mmHg 75%
    15:00 +23°C° 1.1 mm 1 m/S 616 mmHg 77%
    16:00 +22°C° 1.1 mm 1 m/S 616 mmHg 79%
    17:00 +21°C° 0.7 mm 1 m/S 616 mmHg 82%
    18:00 +20°C° 0.7 mm 1 m/S 616 mmHg 85%
    19:00 +18°C° 0.7 mm 1 m/S 615 mmHg 89%
    20:00 +18°C° 0.2 mm 1 m/S 616 mmHg 88%
    21:00 +18°C° 0.2 mm 1 m/S 616 mmHg 88%
    22:00 +18°C° 0.2 mm 1 m/S 617 mmHg 88%
    23:00 +16°C° 0.1 mm 1 m/S 616 mmHg 89%

    27 September, Freitag

    Zeit Temperatur Niederschläge Wind Luftdruck Luftfeuchtigkeit
    00:00 +16°C° 0.1 mm 1 m/S 616 mmHg 89%
    01:00 +15°C° 0.1 mm 1 m/S 616 mmHg 90%
    02:00 +15°C° 0 mm 1 m/S 615 mmHg 90%
    03:00 +15°C° 0 mm 1 m/S 615 mmHg 89%
    04:00 +15°C° 0 mm 1 m/S 615 mmHg 89%
    05:00 +16°C° 0 mm 1 m/S 616 mmHg 87%
    06:00 +16°C° 0 mm 1 m/S 617 mmHg 85%
    07:00 +18°C° 0 mm 1 m/S 617 mmHg 83%
    08:00 +20°C° 0.2 mm 1 m/S 618 mmHg 79%
    09:00 +22°C° 0.2 mm 1 m/S 619 mmHg 74%
    10:00 +23°C° 0.2 mm 1 m/S 619 mmHg 69%
    11:00 +23°C° 1.3 mm 1 m/S 618 mmHg 73%
    12:00 +23°C° 1.3 mm 1 m/S 618 mmHg 76%
    13:00 +23°C° 1.3 mm 1 m/S 617 mmHg 80%
    14:00 +22°C° 1.4 mm 1 m/S 616 mmHg 82%
    15:00 +22°C° 1.4 mm 1 m/S 616 mmHg 83%
    16:00 +22°C° 1.4 mm 1 m/S 615 mmHg 85%
    17:00 +21°C° 0.8 mm 1 m/S 615 mmHg 88%
    18:00 +19°C° 0.8 mm 1 m/S 615 mmHg 90%
    19:00 +18°C° 0.8 mm 1 m/S 615 mmHg 93%
    20:00 +18°C° 0.6 mm 1 m/S 615 mmHg 92%
    21:00 +16°C° 0.6 mm 1 m/S 616 mmHg 92%
    22:00 +16°C° 0.6 mm 1 m/S 616 mmHg 92%
    23:00 +15°C° 0.2 mm 1 m/S 616 mmHg 92%

    28 September, Samstag

    Zeit Temperatur Niederschläge Wind Luftdruck Luftfeuchtigkeit
    00:00 +15°C° 0.2 mm 1 m/S 615 mmHg 92%
    01:00 +15°C° 0.2 mm 1 m/S 615 mmHg 91%
    02:00 +15°C° 0 mm 1 m/S 615 mmHg 91%
    03:00 +15°C° 0 mm 1 m/S 615 mmHg 91%
    04:00 +15°C° 0 mm 1 m/S 615 mmHg 90%
    05:00 +16°C° 0 mm 1 m/S 615 mmHg 88%
    06:00 +16°C° 0 mm 1 m/S 616 mmHg 86%
    07:00 +18°C° 0 mm 1 m/S 617 mmHg 83%
    08:00 +20°C° 0.2 mm 1 m/S 617 mmHg 78%
    09:00 +22°C° 0.2 mm 1 m/S 618 mmHg 72%
    10:00 +24°C° 0.2 mm 1 m/S 619 mmHg 67%
    11:00 +24°C° 0.6 mm 1 m/S 618 mmHg 69%
    12:00 +24°C° 0.6 mm 1 m/S 617 mmHg 71%
    13:00 +24°C° 0.6 mm 1 m/S 616 mmHg 74%
    14:00 +23°C° 1.1 mm 1 m/S 616 mmHg 78%
    15:00 +23°C° 1.1 mm 1 m/S 615 mmHg 82%
    16:00 +20°C° 1.1 mm 0 m/S 615 mmHg 86%
    17:00 +19°C° 1.8 mm 0 m/S 615 mmHg 88%
    18:00 +18°C° 1.8 mm 0 m/S 615 mmHg 90%
    19:00 +17°C° 1.8 mm 0 m/S 615 mmHg 93%
    20:00 +16°C° 1 mm 0 m/S 615 mmHg 93%
    21:00 +16°C° 1 mm 0 m/S 615 mmHg 93%
    22:00 +18°C° 1 mm 1 m/S 616 mmHg 93%
    23:00 +16°C° 0.6 mm 1 m/S 615 mmHg 93%
    Mehr zeigen